EHI
0 0 0 0 0 0 0 0 0 0 0 0 0 0 0 0 0 0 0 0 0 0 0 0 0 0 0 0 0 0 0 0 0 0 0 0 0 0 0 0 0 0 0 0
0 0 0 0 0 0 0 0 0 0 0 0 0 0 0 0 0 0 0 0 0 0 0 0 0 0 0 0 0 0 0 0 0 0 0 0 0 0 0 0 0 0 0 0
0 0 0 0 0 0 0 0 0 0 0 0 0 0 0 0 0 0 0 0 0 0 0 0 0 0 0 0 0 0 0 0 0 0 0 0 0 0 0 0 0 0 0 0
0 0 0 0 0 0 0 0 0 0 0 0 0 0 0 0 0 0 0 0 0 0 0 0 0 0 0 0 0 0 0 0 0 0 0 0 0 0 0 0 0 0 0 0
0 0 0 0 0 0 0 0 0 0 0 0 0 0 0 0 0 0 0 0 0 0 0 0 0 0 0 0 0 0 0 0 0 0 0 0 0 0 0 0 0 0 0 0
0 0 0 0 0 0 0 0 0 0 0 0 0 0 0 0 0 0 0 0 0 0 0 0 0 0 0 0 0 0 0 0 0 0 0 0 0 0 0 0 0 0 0 0
0 0 0 0 0 0 0 0 0 0 0 0 0 0 0 0 0 0 0 0 0 0 0 0 0 0 0 0 0 0 0 0 0 0 0 0 0 0 0 0 0 0 0 0
0 0 0 0 0 0 0 0 0 0 0 0 0 0 0 0 0 0 0 0 0 0 0 0 0 0 0 0 0 0 0 0 0 0 0 0 0 0 0 0 0 0 0 0
0 0 0 0 0 0 0 0 0 0 0 0 0 0 0 0 0 0 0 0 0 0 0 0 0 0 0 0 0 0 0 0 0 0 0 0 0 0 0 0 0 0 0 0
0 0 0 0 0 0 0 0 0 0 0 0 0 0 0 0 0 0 0 0 0 0 0 0 0 0 0 0 0 0 0 0 0 0 0 0 0 0 0 0 0 0 0 0
0 0 0 0 0 0 0 0 0 0 0 0 0 0 0 0 0 0 0 0 0 0 0 0 0 0 0 0 0 0 0 0 0 0 0 0 0 0 0 0 0 0 0 0
0 0 0 0 0 0 0 0 0 0 0 0 0 0 0 0 0 0 0 0 0 0 0 0 0 0 0 0 0 0 0 0 0 0 0 0 0 0 0 0 0 0 0 0
0 0 0 0 0 0 0 0 0 0 0 0 0 0 0 0 0 0 0 0 0 0 0 0 0 0 0 0 0 0 0 0 0 0 0 0 0 0 0 0 0 0 0 0
0 0 0 0 0 0 0 0 0 0 0 0 0 0 0 0 0 0 0 0 0 0 0 0 0 0 0 0 0 0 0 0 0 0 0 0 0 0 0 0 0 0 0 0
0 0 0 0 0 0 0 0 0 0 0 0 0 0 0 0 0 0 0 0 0 0 0 0 0 0 0 0 0 0 0 0 0 0 0 0 0 0 0 0 0 0 0 0
0 0 0 0 0 0 0 0 0 0 0 0 0 0 0 0 0 0 0 0 0 0 0 0 0 0 0 0 0 0 0 0 0 0 0 0 0 0 0 0 0 0 0 0
0 0 0 0 0 0 0 0 0 0 0 0 0 0 0 0 0 0 0 0 0 0 0 0 0 0 0 0 0 0 0 0 0 0 0 0 0 0 0 0 0 0 0 0
0 0 0 0 0 0 0 0 0 0 0 0 0 0 0 0 0 0 0 0 0 0 0 0 0 0 0 0 0 0 0 0 0 0 0 0 0 0 0 0 0 0 0 0
0 0 0 0 0 0 0 0 0 0 0 0 0 0 0 0 0 0 0 0 0 0 0 0 0 0 0 0 0 0 0 0 0 0 0 0 0 0 0 0 0 0 0 0
0 0 0 0 0 0 0 0 0 0 0 0 0 0 0 0 0 0 0 0 0 0 0 0 0 0 0 0 0 0 0 0 0 0 0 0 0 0 0 0 0 0 0 0
0 0 0 0 0 0 0 0 0 0 0 0 0 0 0 0 0 0 0 0 0 0 0 0 0 0 0 0 0 0 0 0 0 0 0 0 0 0 0 0 0 0 0 0
0 0 0 0 0 0 0 0 0 0 0 0 0 0 0 0 0 0 0 0 0 0 0 0 0 0 0 0 0 0 0 0 0 0 0 0 0 0 0 0 0 0 0 0
0 0 0 0 0 0 0 0 0 0 0 0 0 0 0 0 0 0 0 0 0 0 0 0 0 0 0 0 0 0 0 0 0 0 0 0 0 0 0 0 0 0 0 0
0 0 0 0 0 0 0 0 0 0 0 0 0 0 0 0 0 0 0 0 0 0 0 0 0 0 0 0 0 0 0 0 0 0 0 0 0 0 0 0 0 0 0 0
0 0 0 0 0 0 0 0 0 0 0 0 0 0 0 0 0 0 0 0 0 0 0 0 0 0 0 0 0 0 0 0 0 0 0 0 0 0 0 0 0 0 0 0
0 0 0 0 0 0 0 0 0 0 0 0 0 0 0 0 0 0 0 0 0 0 0 0 0 0 0 0 0 0 0 0 0 0 0 0 0 0 0 0 0 0 0 0
0 0 0 0 0 0 0 0 0 0 0 0 0 0 0 0 0 0 0 0 0 0 0 0 0 0 0 0 0 0 0 0 0 0 0 0 0 0 0 0 0 0 0 0
Wind_Speed
15 17 13 13 18 20 14 8 6 7 13 18 10 8 11 13 14 14 14 15 15 14 12 12 11 10 10 9 8 9 9 7 5 4 4 3 3 2 2 3 4 5 6 7
12 13 15 14 17 19 16 10 9 10 14 12 2 3 6 10 15 16 16 15 14 13 12 12 12 12 11 9 9 9 8 6 5 4 3 3 2 2 3 4 5 5 6 6
4 4 11 11 17 18 13 11 13 14 13 4 3 4 4 9 15 17 16 14 15 14 13 12 12 12 12 9 9 8 7 6 5 4 3 3 3 3 4 4 5 6 6 6
4 2 2 2 10 17 16 15 14 10 5 5 8 6 5 3 6 8 10 12 11 12 11 10 10 11 10 9 9 8 7 6 5 4 4 3 3 3 3 3 4 5 6 7
2 2 2 1 4 10 11 8 8 8 7 8 8 6 8 9 4 6 8 10 10 11 12 12 12 12 12 9 8 7 6 5 4 4 3 2 2 3 3 3 4 5 6 6
2 2 1 1 1 1 5 3 4 9 13 10 6 5 1 3 8 13 13 12 13 13 14 13 10 11 11 9 7 7 6 5 4 3 2 2 2 3 3 4 5 5 6 6
0 2 6 6 2 2 5 6 2 7 10 8 4 6 9 7 9 12 13 13 13 13 11 10 9 10 10 8 7 6 5 5 4 3 2 2 3 3 4 4 5 6 6 6
4 3 8 4 1 3 4 1 3 5 6 9 13 15 11 9 11 12 12 11 11 12 10 7 8 10 10 7 6 5 5 4 4 4 3 3 3 4 4 5 5 6 5 6
8 7 3 0 1 1 3 4 4 6 11 17 16 12 11 8 9 10 10 9 9 11 10 7 7 9 9 6 5 5 5 4 4 4 4 3 3 4 4 4 4 5 5 5
4 5 1 1 2 3 4 4 7 11 13 15 16 13 11 10 9 8 9 9 9 10 10 6 6 7 7 6 5 6 5 4 3 3 3 3 3 3 3 4 5 5 6 7
4 3 2 1 2 4 7 11 12 10 9 13 16 14 11 10 9 8 8 6 7 9 9 7 6 7 6 6 6 6 5 3 2 2 2 3 3 3 4 3 7 8 5 5
7 7 7 6 6 8 11 12 13 14 11 8 11 12 10 8 6 7 8 7 8 8 8 7 7 7 5 5 6 5 3 2 1 2 2 3 3 4 8 10 15 15 15 14
5 4 4 7 7 6 9 11 11 12 13 11 8 10 9 7 6 7 8 8 8 8 7 7 7 6 5 5 5 4 2 0 1 2 3 3 3 4 5 8 12 14 17 18
7 8 7 5 6 9 13 14 14 13 11 10 9 10 10 8 7 8 7 7 8 8 7 7 7 5 4 4 4 3 2 2 2 2 3 3 3 4 4 6 7 6 10 16
2 4 10 12 13 13 13 15 16 13 10 9 8 9 10 9 8 7 6 7 8 8 7 7 6 5 4 4 4 3 1 2 2 2 3 3 4 4 5 6 6 7 6 8
8 11 14 17 16 14 15 16 16 12 10 9 9 8 8 8 8 7 7 7 8 7 6 6 6 4 4 4 3 2 1 5 5 3 3 4 4 4 4 5 6 7 7 8
13 11 12 15 14 13 13 13 14 13 11 11 10 10 10 10 9 7 6 5 6 6 5 6 5 4 3 3 2 1 1 3 7 4 3 4 4 4 4 5 6 7 6 10
8 11 14 18 18 16 13 12 12 12 11 10 11 10 9 9 8 7 6 7 7 6 5 5 4 4 3 2 1 1 1 2 3 3 3 4 4 4 5 5 6 8 7 9
11 13 13 13 13 14 14 12 11 10 10 10 11 9 7 7 7 7 7 7 7 5 3 3 5 4 2 2 2 1 2 3 3 3 3 7 6 4 5 6 7 7 8 9
13 15 16 14 12 14 14 12 11 11 9 10 10 10 8 7 7 7 7 5 3 3 4 4 4 3 1 2 3 1 3 3 3 3 3 3 4 5 5 7 7 8 8 9
16 17 17 16 13 11 11 11 12 11 9 9 10 10 9 7 7 7 7 5 2 3 3 5 3 1 1 2 4 2 3 3 3 3 4 4 5 5 5 5 7 8 9 9
16 17 17 16 16 13 8 8 10 11 10 10 10 10 9 8 7 6 5 4 3 5 4 2 1 2 2 4 2 2 3 3 3 3 4 4 5 5 5 6 7 8 8 8
15 16 16 15 15 13 11 9 9 9 10 10 9 9 8 6 5 5 4 2 2 5 3 1 2 4 5 3 2 2 3 3 4 4 4 5 5 5 5 6 6 7 7 8
16 15 15 14 14 15 12 8 8 8 9 9 8 7 8 6 4 3 3 6 6 6 3 3 5 5 6 2 2 3 3 4 4 4 4 5 5 5 5 6 7 7 7 8
15 15 15 15 13 10 11 11 11 10 9 8 7 6 4 3 4 4 4 4 6 5 2 4 6 7 4 3 3 3 3 4 5 4 4 5 5 5 6 6 7 7 8 8
13 11 9 8 9 10 9 9 8 7 8 8 6 4 4 4 5 4 4 4 4 4 2 2 3 5 3 3 4 4 4 5 6 5 5 6 6 7 7 7 8 7 7 8
12 10 9 9 7 6 7 7 8 7 7 8 7 4 4 4 4 4 3 2 2 2 2 2 3 3 3 4 4 4 4 4 4 5 6 6 6 6 7 8 7 8 8 8
Wind_Direction
254 256 245 221 198 190 193 191 204 251 246 253 233 192 176 165 159 158 164 166 165 161 154 147 142 138 135 130 126 125 122 123 130 133 126 118 99 55 17 359 351 346 341 331
264 245 215 205 197 189 194 200 224 266 264 254 241 103 134 155 162 168 172 170 164 157 152 149 145 141 137 132 130 129 129 131 130 127 122 111 82 40 17 3 353 349 339 326
301 131 146 174 185 185 191 196 202 225 236 205 128 112 147 170 172 175 173 163 160 158 154 148 146 143 140 135 132 128 126 127 131 130 117 94 63 37 13 354 346 337 326 320
316 51 109 168 170 179 190 201 204 211 203 146 121 98 42 9 170 158 148 145 141 138 133 128 124 126 123 126 126 125 125 130 133 125 109 81 50 21 350 334 332 317 310 310
345 349 329 18 125 168 175 189 199 171 133 127 143 84 29 8 67 111 114 120 122 125 126 122 126 128 125 122 122 122 126 128 124 118 104 69 23 351 332 321 315 303 302 310
-0 20 1 301 27 194 134 185 188 162 159 169 148 117 172 33 81 91 94 103 110 112 114 117 122 124 123 124 121 124 126 124 118 112 100 53 0 334 317 307 297 303 311 312
242 307 277 263 289 117 142 219 189 165 164 156 137 133 127 106 89 95 99 102 107 108 111 118 121 121 120 119 123 126 122 116 106 88 58 34 5 327 312 311 314 317 312 310
168 217 262 280 56 141 193 96 86 115 113 108 107 107 110 107 104 104 101 100 105 107 106 109 117 119 116 120 126 121 114 104 84 57 33 27 1 329 322 324 321 318 315 313
190 210 241 347 89 83 124 111 107 108 122 124 119 119 117 112 109 105 105 103 104 110 105 98 105 117 122 133 128 115 102 85 63 44 33 18 350 331 326 325 322 319 316 317
231 259 229 92 73 65 85 106 111 124 130 129 126 128 124 120 114 108 108 108 111 109 109 104 105 110 121 126 117 107 96 78 60 46 11 349 339 325 321 320 320 318 324 325
234 263 89 211 145 115 99 106 107 104 110 125 126 126 126 126 123 121 121 116 118 120 121 121 119 112 112 113 109 102 94 79 55 15 336 328 329 322 328 311 325 334 324 316
212 204 183 198 161 135 126 128 129 120 105 105 122 125 126 125 123 122 123 122 121 121 124 126 120 113 108 106 108 109 101 81 5 325 320 322 321 323 340 342 338 341 340 337
193 145 120 124 122 117 121 124 123 120 124 118 109 119 119 113 110 111 117 127 133 135 133 129 121 118 116 110 108 113 119 67 326 327 321 320 322 322 321 328 334 338 338 336
131 116 113 128 127 118 116 113 105 98 100 107 110 110 108 105 108 113 123 130 127 123 122 124 122 123 122 116 114 108 82 5 349 321 319 317 312 307 305 312 319 317 326 332
108 120 132 123 118 119 119 118 111 108 105 100 104 111 114 118 118 116 115 114 112 111 117 122 122 125 124 120 111 92 49 342 328 322 318 311 306 303 303 308 314 316 314 324
95 100 119 126 130 130 128 126 124 125 122 119 118 113 111 111 109 107 110 117 120 125 128 125 126 132 124 113 104 83 23 355 357 343 327 318 307 304 310 316 319 319 321 325
126 136 138 137 138 136 133 133 135 136 133 130 128 124 118 113 108 105 105 106 110 114 119 122 124 122 119 121 115 88 5 342 350 343 317 305 301 307 316 320 317 317 318 324
150 152 153 149 145 137 128 127 131 133 133 131 129 126 126 128 128 123 115 105 96 88 89 109 120 119 113 118 118 20 341 328 322 314 307 305 316 322 319 315 314 317 321 324
117 122 122 124 129 129 129 129 129 126 126 129 130 128 125 123 123 121 116 112 115 115 117 131 129 116 97 29 48 15 339 328 321 315 307 326 334 317 316 318 318 319 323 327
114 118 117 115 118 124 125 125 124 122 122 123 120 117 115 117 118 115 106 95 103 137 146 134 115 110 87 342 11 359 336 326 318 313 308 311 314 316 316 321 323 324 325 322
125 124 122 120 112 107 115 123 126 123 118 118 122 122 119 115 114 114 111 103 95 121 124 122 122 149 268 349 21 360 340 330 322 315 314 316 316 309 304 306 317 324 321 317
130 127 123 120 116 109 100 104 114 118 116 112 111 114 114 112 109 100 95 124 138 121 102 89 135 293 351 46 23 352 341 331 321 315 312 310 309 307 308 314 317 315 310 308
127 124 121 120 119 113 100 96 103 112 116 118 121 122 121 121 124 127 125 133 109 100 88 30 340 357 41 53 4 347 339 329 319 312 307 305 305 307 307 304 303 305 305 307
121 117 115 114 114 112 108 100 95 98 101 101 104 114 121 115 89 71 106 122 112 94 58 16 14 18 32 15 343 335 328 315 304 297 298 306 308 300 293 296 301 304 304 306
117 117 118 120 118 118 120 115 106 103 101 97 91 86 87 100 113 109 89 82 96 94 51 13 14 15 18 342 333 324 314 307 306 311 308 301 296 295 295 297 299 301 303 303
120 117 114 112 121 129 132 130 125 124 121 113 100 86 84 83 90 90 85 74 66 69 52 4 352 359 347 332 320 312 305 309 319 316 300 298 296 298 301 302 301 300 300 299
105 108 110 109 112 120 126 128 129 129 127 124 116 101 95 91 89 89 86 69 47 24 1 346 341 336 325 316 310 307 305 307 305 300 298 295 294 295 298 299 299 299 299 297